TimeGMT,TemperatureF,Dew PointF,Humidity,Sea Level PressureIn,VisibilityMPH,Wind Direction,Wind SpeedMPH,Gust SpeedMPH,PrecipitationIn,Events,Conditions,WindDirDegrees,DateUTC
12:50 AM,33.8,32.0,93,30.45,-9999.0,NNE,9.2,-,N/A,,Clear,20,2012-12-11 00:50:00
1:50 AM,33.8,32.0,93,30.45,6.2,North,8.1,-,N/A,,Partly Cloudy,10,2012-12-11 01:50:00
2:50 AM,34,31,86,30.46,25,NNE,8.1,,,,Scattered Clouds,20,2012-12-11 02:50:00
2:50 AM,33.8,32.0,93,30.45,6.2,NNE,8.1,-,N/A,,Partly Cloudy,20,2012-12-11 02:50:00
3:50 AM,33.8,32.0,93,30.45,6.2,NNE,6.9,-,N/A,,Partly Cloudy,20,2012-12-11 03:50:00
4:50 AM,35.6,32.0,87,30.45,6.2,NNE,6.9,-,N/A,,Partly Cloudy,20,2012-12-11 04:50:00
5:50 AM,35,31,82,30.45,25,North,6.9,,,,Scattered Clouds,10,2012-12-11 05:50:00
5:50 AM,35.6,32.0,87,30.45,6.2,North,6.9,-,N/A,,Partly Cloudy,10,2012-12-11 05:50:00
6:20 AM,35.6,32.0,87,30.45,6.2,North,6.9,-,N/A,,Scattered Clouds,10,2012-12-11 06:20:00
6:50 AM,35.6,32.0,87,30.45,6.2,NNE,6.9,-,N/A,,Scattered Clouds,20,2012-12-11 06:50:00
7:20 AM,35.6,32.0,87,30.45,6.2,NNE,6.9,-,N/A,,Scattered Clouds,20,2012-12-11 07:20:00
7:50 AM,35.6,32.0,87,30.45,6.2,NNE,5.8,-,N/A,,Scattered Clouds,30,2012-12-11 07:50:00
8:20 AM,33.8,32.0,93,30.45,6.2,NNE,5.8,-,N/A,,Scattered Clouds,20,2012-12-11 08:20:00
8:50 AM,35,32,83,30.45,37,NNE,5.8,,,,Partly Cloudy,20,2012-12-11 08:50:00
8:50 AM,35.6,32.0,87,30.45,6.2,NNE,5.8,-,N/A,,Scattered Clouds,20,2012-12-11 08:50:00
9:20 AM,35.6,32.0,87,30.45,6.2,NNE,5.8,-,N/A,,Scattered Clouds,20,2012-12-11 09:20:00
9:50 AM,37.4,33.8,87,30.45,6.2,NNE,5.8,-,N/A,,Scattered Clouds,20,2012-12-11 09:50:00
10:20 AM,39.2,33.8,81,30.45,6.2,NNE,4.6,-,N/A,,Scattered Clouds,30,2012-12-11 10:20:00
10:50 AM,39.2,33.8,81,30.45,6.2,NNE,4.6,-,N/A,,Scattered Clouds,30,2012-12-11 10:50:00
11:20 AM,41.0,35.6,81,30.42,6.2,NE,4.6,-,N/A,,Scattered Clouds,50,2012-12-11 11:20:00
11:50 AM,44,34,57,30.44,31,SE,5.8,,,,Partly Cloudy,140,2012-12-11 11:50:00
11:50 AM,44.6,33.8,66,30.42,6.2,SE,5.8,-,N/A,,Scattered Clouds,140,2012-12-11 11:50:00
12:20 PM,42.8,33.8,70,30.42,6.2,SSE,6.9,-,N/A,,Scattered Clouds,150,2012-12-11 12:20:00
12:50 PM,42.8,33.8,70,30.42,6.2,SSE,6.9,-,N/A,,Scattered Clouds,150,2012-12-11 12:50:00
1:20 PM,42.8,33.8,70,30.39,6.2,SSE,6.9,-,N/A,,Scattered Clouds,150,2012-12-11 13:20:00
1:50 PM,42.8,33.8,70,30.39,6.2,SE,6.9,-,N/A,,Partly Cloudy,140,2012-12-11 13:50:00
2:20 PM,41.0,33.8,76,30.39,6.2,SE,6.9,-,N/A,,Partly Cloudy,140,2012-12-11 14:20:00
2:50 PM,40,33,69,30.40,31,SSE,6.9,,,,Partly Cloudy,160,2012-12-11 14:50:00
2:50 PM,41.0,33.8,76,30.39,6.2,SSE,6.9,-,N/A,,Scattered Clouds,160,2012-12-11 14:50:00
3:20 PM,39.2,33.8,81,30.36,6.2,SSE,5.8,-,N/A,,Partly Cloudy,160,2012-12-11 15:20:00
3:50 PM,37.4,32.0,81,30.36,6.2,SSE,5.8,-,N/A,,Partly Cloudy,150,2012-12-11 15:50:00
4:20 PM,37.4,32.0,81,30.36,6.2,SSE,5.8,-,N/A,,Partly Cloudy,150,2012-12-11 16:20:00
4:50 PM,37.4,33.8,87,30.36,6.2,Variable,2.3,-,N/A,,Partly Cloudy,0,2012-12-11 16:50:00
5:20 PM,35.6,32.0,87,30.36,6.2,Variable,3.5,-,N/A,,Partly Cloudy,0,2012-12-11 17:20:00
5:50 PM,34,31,86,30.36,31,NE,3.5,,,,Scattered Clouds,40,2012-12-11 17:50:00
5:50 PM,33.8,32.0,93,30.33,6.2,Variable,3.5,-,N/A,,Partly Cloudy,0,2012-12-11 17:50:00
6:20 PM,33.8,32.0,93,30.33,6.2,Variable,3.5,-,N/A,,Partly Cloudy,0,2012-12-11 18:20:00
6:50 PM,33.8,32.0,93,30.33,6.2,NE,4.6,-,N/A,,Partly Cloudy,40,2012-12-11 18:50:00
7:20 PM,35.6,32.0,87,30.33,6.2,NNE,4.6,-,N/A,,Scattered Clouds,30,2012-12-11 19:20:00
7:50 PM,37.4,32.0,81,30.30,6.2,NNE,4.6,-,N/A,,Mostly Cloudy,20,2012-12-11 19:50:00
8:20 PM,37.4,32.0,81,30.30,6.2,Variable,3.5,-,N/A,,Mostly Cloudy,0,2012-12-11 20:20:00
8:50 PM,37,33,79,30.31,25,North,3.5,,,,Mostly Cloudy,0,2012-12-11 20:50:00
8:50 PM,37.4,32.0,81,30.30,6.2,Variable,3.5,-,N/A,,Mostly Cloudy,0,2012-12-11 20:50:00
9:50 PM,35.6,32.0,87,30.27,6.2,Variable,3.5,-,N/A,,Scattered Clouds,0,2012-12-11 21:50:00
10:50 PM,35.6,32.0,87,30.27,6.2,Variable,2.3,-,N/A,,Scattered Clouds,0,2012-12-11 22:50:00
11:50 PM,39,32,67,30.26,25,South,8.1,,,,Scattered Clouds,190,2012-12-11 23:50:00
11:50 PM,39.2,32.0,75,30.24,6.2,South,8.1,-,N/A,,Partly Cloudy,190,2012-12-11 23:50:00